GW2683 Weather Reports


time (UTC)temp
F
wind
direction
speed
knots
gust
knots
rain 1hr
in
rain 24hr
in
rain mn
in
humidity
%
barometer
mb
20260510061303 48 250 0.0 1.7 0.00 0.42 0.00 94 1011.0
20260510060803 48 250 0.0 1.7 0.00 0.43 0.00 94 1011.0
20260510060303 47 250 0.0 1.7 0.00 0.43 0.00 94 1010.9
20260510055803 47 250 0.0 2.6 0.00 0.43 0.00 94 1010.9
20260510055306 47 250 0.9 2.6 0.00 0.43 0.00 94 1011.0
20260510054803 47 250 0.9 2.6 0.00 0.43 0.00 94 1010.9
20260510054303 47 355 0.0 0.0 0.00 0.43 0.00 94 1010.6
20260510053803 47 355 0.0 0.0 0.00 0.43 0.00 94 1010.6
20260510053303 47 355 0.0 0.0 0.00 0.43 0.00 94 1010.6
20260510052803 47 355 0.0 0.0 0.00 0.43 0.00 94 1010.7
20260510052306 46 355 0.0 1.7 0.00 0.43 0.00 94 1010.8
20260510051803 46 355 0.0 1.7 0.00 0.43 0.00 94 1010.9
20260510051303 46 355 0.0 0.0 0.00 0.43 0.00 94 1010.8
20260510050803 46 355 0.0 0.0 0.00 0.43 0.00 94 1010.8
20260510050303 45 355 0.0 1.7 0.00 0.43 0.00 94 1010.8
20260510045804 45 355 0.0 1.7 0.00 0.43 0.00 93 1010.7
20260510045306 44 355 0.0 0.9 0.00 0.43 0.00 93 1010.7
20260510044803 44 329 0.0 0.9 0.00 0.43 0.00 93 1010.8
20260510044304 44 274 0.0 0.0 0.00 0.43 0.00 93 1010.7
20260510043803 43 274 0.0 1.7 0.00 0.43 0.00 92 1010.5
20260510043303 43 274 0.0 1.7 0.00 0.43 0.00 92 1010.4
20260510042803 43 274 0.0 1.7 0.00 0.43 0.00 92 1010.2
20260510042305 43 274 0.0 0.9 0.00 0.43 0.00 91 1010.1
20260510041804 43 274 0.0 1.7 0.00 0.43 0.00 91 1009.9
20260510041303 43 293 0.0 1.7 0.00 0.43 0.00 91 1009.9
20260510040815 43 293 0.0 1.7 0.00 0.43 0.00 91 1009.7
20260510040304 43 293 0.0 1.7 0.00 0.43 0.00 91 1009.8
20260510035804 43 214 0.0 0.9 0.00 0.43 0.43 91 1009.8
20260510035306 44 214 0.0 0.9 0.00 0.44 0.43 91 1009.9
20260510034803 44 214 0.0 0.9 0.00 0.44 0.43 91 1009.9
20260510034303 44 214 0.0 1.7 0.00 0.44 0.43 91 1009.8
20260510033804 44 214 0.0 1.7 0.00 0.44 0.43 91 1009.8
20260510033304 44 214 0.0 1.7 0.00 0.44 0.43 91 1009.8
20260510032803 44 214 0.0 0.0 0.00 0.44 0.43 91 1009.8
20260510032306 44 214 0.0 0.0 0.00 0.44 0.43 91 1009.8
20260510031803 44 214 0.0 0.9 0.00 0.44 0.43 91 1009.8
20260510031303 44 214 0.0 0.9 0.00 0.44 0.43 90 1009.8
20260510030803 45 214 0.0 0.0 0.00 0.44 0.43 90 1009.8
20260510025803 45 214 0.0 0.0 0.00 0.44 0.43 90 1009.9
20260510025305 45 214 0.0 1.7 0.00 0.44 0.43 90 1009.8
20260510024803 45 214 0.0 1.7 0.00 0.44 0.43 90 1009.7
20260510024304 45 214 0.0 1.7 0.00 0.44 0.43 90 1009.8
20260510023803 46 214 0.0 0.9 0.00 0.44 0.43 90 1009.8
20260510023303 46 214 0.0 0.9 0.00 0.44 0.43 90 1009.8
20260510022803 46 214 0.0 1.7 0.00 0.44 0.43 90 1009.9
20260510022306 46 214 0.0 1.7 0.00 0.44 0.43 89 1009.9
20260510021803 47 214 0.0 1.7 0.00 0.44 0.43 89 1009.7
20260510021303 47 214 0.0 1.7 0.00 0.44 0.43 89 1009.7
20260510020804 47 214 0.0 1.7 0.00 0.44 0.43 89 1009.8
20260510020304 48 214 0.0 0.0 0.00 0.44 0.43 89 1009.8
20260510015306 48 214 0.0 0.0 0.00 0.44 0.43 89 1009.7
20260510014803 48 214 0.0 0.0 0.00 0.44 0.43 89 1009.7
20260510014304 48 214 0.0 0.9 0.00 0.44 0.43 89 1009.6
20260510013304 49 214 0.0 0.9 0.00 0.44 0.43 88 1009.6
20260510012803 49 214 0.0 0.0 0.00 0.44 0.43 88 1009.6
20260510011803 49 214 0.0 0.0 0.00 0.44 0.43 87 1009.3
20260510011303 50 214 0.0 1.7 0.00 0.44 0.43 87 1009.2
20260510010803 50 214 0.0 1.7 0.00 0.44 0.43 87 1009.2
20260510010303 50 214 0.0 1.7 0.00 0.44 0.43 86 1009.1
20260510005804 51 214 0.0 0.9 0.00 0.44 0.43 86 1009.1
20260510005306 51 214 0.0 0.9 0.00 0.44 0.43 85 1009.1
20260510004803 51 214 0.0 0.0 0.00 0.44 0.43 85 1009.1
20260510004303 52 214 0.0 0.0 0.00 0.44 0.43 84 1008.9
20260510001803 53 214 0.0 1.7 0.00 0.44 0.43 82 1008.7
20260510001304 54 214 0.0 1.7 0.00 0.44 0.43 82 1008.8
20260510000304 55 205 0.9 2.6 0.00 0.44 0.43 77 1008.8
20260509235804 55 194 0.0 2.6 0.00 0.44 0.43 77 1008.6
20260509234803 56 135 0.9 8.7 0.00 0.44 0.43 76 1008.5
20260509234303 57 166 0.9 2.6 0.00 0.44 0.43 76 1008.5
20260509233804 58 202 0.0 0.0 0.00 0.44 0.43 78 1008.3
20260509231803 58 214 0.0 1.7 0.00 0.45 0.43 77 1008.0
20260509231304 58 220 0.0 2.6 0.00 0.45 0.43 75 1008.1
20260509230803 58 227 0.9 2.6 0.00 0.45 0.43 75 1008.1
20260509230303 58 249 0.0 2.6 0.00 0.45 0.43 75 1008.1
20260509225803 58 193 0.9 2.6 0.00 0.45 0.43 76 1008.0
20260509225306 58 171 1.7 4.3 0.00 0.45 0.43 75 1007.8
20260509224803 57 233 0.9 6.1 0.00 0.45 0.43 76 1007.9
20260509224304 57 173 1.7 7.8 0.00 0.45 0.43 76 1008.0
20260509223803 57 192 1.7 10.4 0.00 0.45 0.43 77 1008.2
20260509223303 57 217 2.6 10.4 0.00 0.45 0.43 76 1008.3
20260509221803 57 182 1.7 10.4 0.00 0.45 0.43 79 1008.3
20260509221303 57 233 2.6 10.4 0.00 0.45 0.43 79 1008.3
20260509220303 56 254 2.6 7.0 0.00 0.45 0.43 80 1008.3
20260509215803 56 195 2.6 5.2 0.00 0.45 0.43 81 1008.4
20260509215306 55 217 3.5 6.1 0.00 0.45 0.43 81 1008.4
20260509214803 55 243 2.6 6.1 0.00 0.45 0.43 82 1008.5
20260509213804 55 213 4.3 7.8 0.00 0.45 0.43 80 1008.6
20260509213304 55 230 2.6 7.8 0.00 0.45 0.43 80 1008.6
20260509212306 56 222 3.5 8.7 0.00 0.45 0.43 82 1008.6
20260509211803 56 185 2.6 8.7 0.00 0.45 0.43 82 1008.6
20260509211303 55 148 1.7 5.2 0.00 0.45 0.43 84 1008.8
20260509210304 54 202 0.9 2.6 0.00 0.45 0.43 88 1008.8
20260509205307 54 202 0.9 2.6 0.00 0.45 0.43 87 1008.9
20260509204804 53 225 0.9 2.6 0.00 0.45 0.43 88 1008.9
20260509204303 53 205 0.0 2.6 0.00 0.45 0.43 88 1009.0
20260509202803 53 240 2.6 5.2 0.01 0.45 0.43 88 1009.1
20260509202306 52 216 1.7 4.3 0.01 0.45 0.43 88 1009.2
20260509200803 52 219 0.9 2.6 0.03 0.45 0.43 89 1009.1
20260509200303 52 207 0.9 2.6 0.04 0.45 0.43 88 1009.2
20260509195803 52 180 0.9 2.6 0.05 0.45 0.43 88 1009.2
20260509195306 52 137 0.0 1.7 0.05 0.45 0.43 89 1009.3
20260509194804 51 243 0.0 1.7 0.06 0.45 0.43 89 1009.2
20260509194304 51 243 0.0 1.7 0.06 0.45 0.43 88 1009.4
20260509193803 51 195 0.0 1.7 0.06 0.44 0.42 89 1009.6
20260509193303 51 195 0.0 1.7 0.06 0.44 0.42 89 1009.7
20260509192804 51 234 0.0 1.7 0.07 0.44 0.42 88 1009.6
20260509191803 51 184 0.0 2.6 0.08 0.44 0.42 88 1009.7
20260509185803 51 145 0.0 2.6 0.08 0.40 0.38 88 1010.1
20260509185306 51 270 0.9 2.6 0.09 0.40 0.38 88 1010.2
20260509184304 51 164 0.0 2.6 0.09 0.39 0.37 88 1010.2
20260509183303 51 116 0.0 2.6 0.10 0.38 0.36 88 1010.0
20260509181803 51 155 2.6 6.1 0.11 0.36 0.34 89 1010.0
20260509181304 51 145 0.0 2.6 0.10 0.34 0.32 89 1010.2
20260509180803 51 188 0.9 2.6 0.10 0.33 0.31 89 1010.2
20260509180303 51 155 0.9 2.6 0.10 0.32 0.30 90 1010.2
20260509174804 51 176 0.0 2.6 0.10 0.30 0.28 90 1010.1
20260509173804 51 217 0.0 2.6 0.10 0.29 0.27 90 1010.2
20260509173303 51 152 0.0 2.6 0.10 0.28 0.26 90 1010.1
20260509172306 51 175 0.9 6.1 0.10 0.27 0.25 90 1010.2
20260509171803 51 185 0.0 6.1 0.08 0.25 0.23 90 1010.3
20260509170802 51 165 0.0 2.6 0.07 0.23 0.21 89 1010.1
20260509170303 51 113 0.9 2.6 0.06 0.22 0.20 89 1010.1
20260509165802 51 215 0.0 2.6 0.05 0.21 0.19 89 1010.2
20260509165306 51 154 0.9 2.6 0.05 0.20 0.18 89 1010.2
20260509164802 51 90 0.0 2.6 0.05 0.20 0.18 89 1010.1
20260509163303 51 179 1.7 5.2 0.04 0.18 0.16 89 1010.3
20260509162803 51 153 1.7 7.0 0.04 0.18 0.16 89 1010.3
20260509162306 51 157 1.7 7.0 0.03 0.17 0.15 89 1010.3
20260509161802 51 192 0.9 4.3 0.03 0.17 0.15 89 1010.3
20260509161303 51 139 0.0 2.6 0.02 0.16 0.14 89 1010.3
20260509160802 51 207 0.9 5.2 0.03 0.16 0.14 90 1010.3
20260509160302 51 205 1.7 5.2 0.03 0.16 0.14 89 1010.4
20260509155802 51 161 0.0 4.3 0.03 0.16 0.14 90 1010.3
20260509155306 51 120 1.7 4.3 0.02 0.15 0.13 90 1010.3
20260509154803 51 178 1.7 4.3 0.02 0.15 0.13 90 1010.3
20260509154303 51 66 0.0 2.6 0.02 0.15 0.13 90 1010.4
20260509153802 50 206 0.0 2.6 0.03 0.15 0.13 89 1010.4
20260509153303 50 160 0.9 2.6 0.02 0.14 0.12 89 1010.5
20260509152803 50 163 0.9 2.6 0.02 0.14 0.12 89 1010.6
20260509152305 50 157 0.9 2.6 0.03 0.14 0.12 89 1010.6
20260509151802 50 129 0.9 2.6 0.04 0.14 0.12 88 1010.4
20260509151303 50 175 0.0 1.7 0.04 0.14 0.12 89 1010.5
20260509150303 50 144 0.9 4.3 0.04 0.13 0.11 88 1010.5
20260509145803 50 212 0.9 2.6 0.04 0.13 0.11 89 1010.4
20260509145306 50 322 0.0 1.7 0.05 0.13 0.11 89 1010.2
20260509144303 50 334 0.0 1.7 0.06 0.13 0.11 89 1010.0
20260509143803 50 335 0.0 1.7 0.05 0.12 0.10 89 1010.2
20260509143303 50 341 0.0 4.3 0.05 0.12 0.10 88 1010.4
20260509142803 50 113 0.0 4.3 0.05 0.12 0.10 88 1010.7
20260509142306 50 92 0.0 2.6 0.04 0.11 0.09 89 1010.9
20260509141802 50 133 0.0 2.6 0.04 0.10 0.08 88 1010.9
20260509140802 50 171 0.0 1.7 0.04 0.10 0.08 88 1010.9
20260509140303 50 214 0.0 1.7 0.03 0.09 0.07 88 1010.5
20260509135803 50 214 0.0 0.9 0.03 0.09 0.07 88 1010.5
20260509134803 50 214 0.0 0.0 0.02 0.08 0.06 86 1010.4
20260509134302 50 214 0.0 0.0 0.01 0.07 0.05 87 1010.2
20260509133302 49 214 0.0 1.7 0.01 0.07 0.05 88 1010.2
20260509132803 49 214 0.0 1.7 0.01 0.07 0.05 88 1010.3
20260509131302 49 319 0.0 1.7 0.00 0.06 0.04 90 1010.3
20260509130802 49 319 0.0 0.0 0.00 0.06 0.04 90 1010.2
20260509130303 49 319 0.0 0.9 0.00 0.06 0.04 90 1010.2
20260509125802 49 319 0.0 0.9 0.00 0.06 0.04 90 1010.2
20260509125307 49 183 0.0 0.9 0.00 0.06 0.04 90 1010.3
20260509124803 49 187 0.0 1.7 0.00 0.06 0.04 91 1010.4
20260509124303 49 188 0.0 1.7 0.01 0.06 0.04 90 1010.4
20260509122802 48 179 0.0 1.7 0.01 0.06 0.04 91 1010.3
20260509122305 48 179 0.0 1.7 0.01 0.06 0.04 91 1010.4
20260509121802 48 213 0.0 1.7 0.01 0.06 0.04 92 1010.5
20260509121302 48 213 0.0 1.7 0.01 0.06 0.04 92 1010.3
20260509120803 48 213 0.0 1.7 0.01 0.06 0.04 92 1010.4
20260509115803 47 305 0.0 1.7 0.02 0.06 0.04 92 1010.5
20260509115306 47 305 0.0 0.0 0.02 0.06 0.04 92 1010.5
20260509113803 47 308 0.0 1.7 0.01 0.05 0.03 92 1010.8
20260509113302 47 321 0.0 0.9 0.01 0.05 0.03 92 1010.6
20260509112803 47 321 0.0 1.7 0.02 0.05 0.03 92 1010.5
20260509111802 46 287 0.0 1.7 0.02 0.05 0.03 92 1010.6
20260509111303 46 287 0.9 1.7 0.02 0.05 0.03 92 1010.6
20260509110803 46 341 0.0 1.7 0.02 0.05 0.03 92 1010.5
20260509110303 46 339 0.9 1.7 0.01 0.04 0.02 92 1010.4
20260509105802 46 291 0.9 1.7 0.01 0.04 0.02 92 1010.5
20260509104302 46 275 0.0 1.7 0.01 0.04 0.02 92 1010.4
20260509103802 46 259 0.9 1.7 0.01 0.04 0.02 92 1010.3
20260509103303 46 218 0.0 1.7 0.01 0.04 0.02 92 1010.3
20260509102803 46 218 0.0 1.7 0.00 0.03 0.01 92 1010.3
20260509102305 46 218 0.9 1.7 0.00 0.03 0.01 92 1010.3
20260509101802 46 224 0.0 1.7 0.00 0.03 0.01 92 1010.1
20260509101303 46 223 0.0 2.6 0.00 0.03 0.01 91 1010.2
20260509100803 46 223 0.9 2.6 0.00 0.03 0.01 92 1010.2
20260509100303 46 244 0.0 0.0 0.00 0.03 0.01 92 1010.2
20260509095802 46 296 0.0 0.0 0.00 0.03 0.01 91 1010.2
20260509095305 46 296 0.0 0.0 0.00 0.03 0.01 91 1010.2
20260509094803 46 296 0.0 0.0 0.00 0.03 0.01 91 1010.3
20260509094303 46 296 0.0 0.0 0.00 0.03 0.01 91 1010.2
20260509093303 46 296 0.0 0.0 0.00 0.03 0.01 91 1010.3
20260509092803 46 296 0.0 0.0 0.00 0.03 0.01 91 1010.3
20260509092305 46 296 0.0 0.0 0.00 0.03 0.01 91 1010.3
20260509091803 46 296 0.0 0.0 0.00 0.03 0.01 91 1010.4
20260509091303 46 296 0.0 0.0 0.00 0.03 0.01 91 1010.4
20260509090803 46 296 0.0 0.0 0.00 0.03 0.01 91 1010.6
20260509090303 46 296 0.0 0.0 0.00 0.03 0.01 91 1010.6
20260509085803 46 296 0.0 0.0 0.00 0.03 0.01 91 1010.7
20260509085306 46 296 0.0 0.0 0.00 0.03 0.01 91 1010.7
20260509084803 46 296 0.0 0.0 0.00 0.03 0.01 91 1010.8
20260509083803 46 296 0.0 1.7 0.00 0.03 0.01 91 1011.0
20260509083304 46 296 0.0 1.7 0.00 0.03 0.01 91 1011.0
20260509082803 46 296 0.9 0.9 0.00 0.03 0.01 91 1011.2
20260509082306 46 302 0.0 1.7 0.00 0.03 0.01 91 1011.3
20260509081803 46 302 0.9 1.7 0.00 0.03 0.01 91 1011.2
20260509081303 46 219 0.0 1.7 0.00 0.03 0.01 91 1011.2
20260509080303 46 203 0.0 0.0 0.00 0.03 0.01 91 1011.3
20260509075803 46 203 0.0 0.0 0.00 0.03 0.01 90 1011.2
20260509075306 46 203 0.0 0.0 0.00 0.03 0.01 90 1011.2
20260509074803 46 203 0.0 0.0 0.00 0.03 0.01 90 1011.2
20260509074302 46 203 0.0 0.0 0.00 0.03 0.01 90 1011.4
20260509073802 46 203 0.0 0.0 0.00 0.03 0.01 90 1011.5
20260509073303 46 203 0.0 1.7 0.00 0.03 0.01 90 1011.6
20260509072306 46 173 0.0 1.7 0.00 0.03 0.01 90 1011.6
20260509071803 46 152 0.0 0.9 0.00 0.03 0.01 90 1011.6
20260509071303 46 152 0.0 0.9 0.00 0.03 0.01 90 1011.4
20260509070803 46 152 0.0 0.0 0.01 0.03 0.01 90 1011.1
20260509070303 46 152 0.0 0.0 0.01 0.03 0.01 90 1011.1
20260509065803 46 152 0.0 0.9 0.01 0.03 0.01 90 1011.0
20260509064803 46 109 0.0 0.9 0.01 0.03 0.01 90 1011.1
20260509064303 46 355 0.0 0.0 0.01 0.03 0.01 90 1011.1
20260509063803 46 326 0.0 0.0 0.01 0.03 0.01 90 1011.2
20260509063303 46 326 0.0 1.7 0.01 0.03 0.01 90 1011.2
20260509062803 46 326 0.0 1.7 0.01 0.03 0.01 90 1011.2
20260509061803 46 325 0.9 1.7 0.01 0.03 0.01 90 1011.4